owner,sensor,date,latitude,longitude,vertical_datum,sea_water_temperature,qcFlag
BP,ioos:station:wmo:42369:4,2022-09-01T00:00:00Z,27.2100,-90.2729,1342.0,4.4,11113222
BP,ioos:station:wmo:42369:4,2022-09-01T00:20:00Z,27.2100,-90.2729,1342.0,4.4,11113222
BP,ioos:station:wmo:42369:4,2022-09-01T00:40:00Z,27.2099,-90.2729,1342.0,4.4,11113222
BP,ioos:station:wmo:42369:4,2022-09-01T01:00:00Z,27.2099,-90.2729,1342.0,4.4,11113222
BP,ioos:station:wmo:42369:4,2022-09-01T01:20:00Z,27.2098,-90.2729,1342.0,4.4,11113222
BP,ioos:station:wmo:42369:4,2022-09-01T01:40:00Z,27.2099,-90.2731,1342.0,4.4,11113222
BP,ioos:station:wmo:42369:4,2022-09-01T02:40:00Z,27.2101,-90.2733,1342.0,4.4,11113222
BP,ioos:station:wmo:42369:4,2022-09-01T03:00:00Z,27.2101,-90.2733,1342.0,4.4,11113222
BP,ioos:station:wmo:42369:4,2022-09-01T03:20:00Z,27.2101,-90.2733,1342.0,4.4,11113222
BP,ioos:station:wmo:42369:4,2022-09-01T04:00:00Z,27.2099,-90.2732,1342.0,4.4,11113222
BP,ioos:station:wmo:42369:4,2022-09-01T04:20:00Z,27.2100,-90.2732,1342.0,4.4,11113222
BP,ioos:station:wmo:42369:4,2022-09-01T04:40:00Z,27.2101,-90.2732,1342.0,4.4,11113222
BP,ioos:station:wmo:42369:4,2022-09-01T05:00:00Z,27.2101,-90.2733,1342.0,4.4,11113222
BP,ioos:station:wmo:42369:4,2022-09-01T05:20:00Z,27.2101,-90.2733,1342.0,4.4,11113222
BP,ioos:station:wmo:42369:4,2022-09-01T05:40:00Z,27.2101,-90.2733,1342.0,4.4,11113222
BP,ioos:station:wmo:42369:4,2022-09-01T06:00:00Z,27.2102,-90.2733,1342.0,4.4,11113222
BP,ioos:station:wmo:42369:4,2022-09-01T06:20:00Z,27.2102,-90.2733,1342.0,4.4,11113222
BP,ioos:station:wmo:42369:4,2022-09-01T06:40:00Z,27.2103,-90.2734,1342.0,4.4,11113222
BP,ioos:station:wmo:42369:4,2022-09-01T07:00:00Z,27.2104,-90.2734,1342.0,4.4,11113222
BP,ioos:station:wmo:42369:4,2022-09-01T07:40:00Z,27.2107,-90.2735,1342.0,4.4,11113222
BP,ioos:station:wmo:42369:4,2022-09-01T08:00:00Z,27.2108,-90.2735,1342.0,4.4,11113222
BP,ioos:station:wmo:42369:4,2022-09-01T08:20:00Z,27.2108,-90.2735,1342.0,4.4,11113222
BP,ioos:station:wmo:42369:4,2022-09-01T08:40:00Z,27.2108,-90.2735,1342.0,4.4,11113222
BP,ioos:station:wmo:42369:4,2022-09-01T09:00:00Z,27.2108,-90.2735,1342.0,4.4,11113222
BP,ioos:station:wmo:42369:4,2022-09-01T09:20:00Z,27.2108,-90.2735,1342.0,4.4,11113222
BP,ioos:station:wmo:42369:4,2022-09-01T09:40:00Z,27.2108,-90.2735,1342.0,4.4,11113222
BP,ioos:station:wmo:42369:4,2022-09-01T10:00:00Z,27.2107,-90.2735,1342.0,4.4,11113222
BP,ioos:station:wmo:42369:4,2022-09-01T10:20:00Z,27.2108,-90.2735,1342.0,4.4,11113222
BP,ioos:station:wmo:42369:4,2022-09-01T10:40:00Z,27.2108,-90.2735,1342.0,4.4,11113222
BP,ioos:station:wmo:42369:4,2022-09-01T11:00:00Z,27.2108,-90.2735,1342.0,4.4,11113222
BP,ioos:station:wmo:42369:4,2022-09-01T11:20:00Z,27.2109,-90.2734,1342.0,4.4,11113222
BP,ioos:station:wmo:42369:4,2022-09-01T11:40:00Z,27.2109,-90.2734,1342.0,4.4,11113222
BP,ioos:station:wmo:42369:4,2022-09-01T12:00:00Z,27.2109,-90.2734,1342.0,4.4,11113222
BP,ioos:station:wmo:42369:4,2022-09-01T12:20:00Z,27.2109,-90.2734,1342.0,4.4,11113222
BP,ioos:station:wmo:42369:4,2022-09-01T12:40:00Z,27.2109,-90.2734,1342.0,4.4,11113222
BP,ioos:station:wmo:42369:4,2022-09-01T13:00:00Z,27.2109,-90.2734,1342.0,4.4,11113222
BP,ioos:station:wmo:42369:4,2022-09-01T13:20:00Z,27.2109,-90.2734,1342.0,4.4,11113222
BP,ioos:station:wmo:42369:4,2022-09-01T13:40:00Z,27.2109,-90.2733,1342.0,4.4,11113222
BP,ioos:station:wmo:42369:4,2022-09-01T14:00:00Z,27.2109,-90.2733,1342.0,4.4,11113222
BP,ioos:station:wmo:42369:4,2022-09-01T14:20:00Z,27.2108,-90.2733,1342.0,4.4,11113222
BP,ioos:station:wmo:42369:4,2022-09-01T14:40:00Z,27.2108,-90.2732,1342.0,4.4,11113222
BP,ioos:station:wmo:42369:4,2022-09-01T15:00:00Z,27.2108,-90.2733,1342.0,4.4,11113222
BP,ioos:station:wmo:42369:4,2022-09-01T15:20:00Z,27.2108,-90.2732,1342.0,4.4,11113222
BP,ioos:station:wmo:42369:4,2022-09-01T16:00:00Z,27.2107,-90.2732,1342.0,4.4,11113222
BP,ioos:station:wmo:42369:4,2022-09-01T16:20:00Z,27.2106,-90.2732,1342.0,4.4,11113222
BP,ioos:station:wmo:42369:4,2022-09-01T16:40:00Z,27.2106,-90.2732,1342.0,4.4,11113222
BP,ioos:station:wmo:42369:4,2022-09-01T17:20:00Z,27.2105,-90.2733,1342.0,4.4,11113222
BP,ioos:station:wmo:42369:4,2022-09-01T17:40:00Z,27.2105,-90.2733,1342.0,4.4,11113222
BP,ioos:station:wmo:42369:4,2022-09-01T18:00:00Z,27.2107,-90.2732,1342.0,4.4,11113222
BP,ioos:station:wmo:42369:4,2022-09-01T18:20:00Z,27.2107,-90.2732,1342.0,4.4,11113222
BP,ioos:station:wmo:42369:4,2022-09-01T18:40:00Z,27.2106,-90.2732,1342.0,4.4,11113222
BP,ioos:station:wmo:42369:4,2022-09-01T19:20:00Z,27.2104,-90.2733,1342.0,4.4,11113222
BP,ioos:station:wmo:42369:4,2022-09-01T19:40:00Z,27.2104,-90.2733,1342.0,4.4,11113222
BP,ioos:station:wmo:42369:4,2022-09-01T20:00:00Z,27.2104,-90.2733,1342.0,4.5,11113222
BP,ioos:station:wmo:42369:4,2022-09-01T20:20:00Z,27.2104,-90.2733,1342.0,4.5,11113222
BP,ioos:station:wmo:42369:4,2022-09-01T20:40:00Z,27.2104,-90.2733,1342.0,4.5,11113222
BP,ioos:station:wmo:42369:4,2022-09-01T21:20:00Z,27.2104,-90.2733,1342.0,4.5,11113222
BP,ioos:station:wmo:42369:4,2022-09-01T21:40:00Z,27.2104,-90.2733,1342.0,4.5,11113222
BP,ioos:station:wmo:42369:4,2022-09-01T22:00:00Z,27.2105,-90.2733,1342.0,4.5,11113222
BP,ioos:station:wmo:42369:4,2022-09-01T22:20:00Z,27.2105,-90.2733,1342.0,4.5,11113222
BP,ioos:station:wmo:42369:4,2022-09-01T22:40:00Z,27.2104,-90.2733,1342.0,4.4,11113222
BP,ioos:station:wmo:42369:4,2022-09-01T23:00:00Z,27.2103,-90.2733,1342.0,4.4,11113222
BP,ioos:station:wmo:42369:4,2022-09-01T23:20:00Z,27.2104,-90.2733,1342.0,4.5,11113222
BP,ioos:station:wmo:42369:4,2022-09-01T23:40:00Z,27.2104,-90.2733,1342.0,4.5,11113222
BP,ioos:station:wmo:42369:4,2022-09-02T00:00:00Z,27.2104,-90.2733,1342.0,4.4,11113222
BP,ioos:station:wmo:42369:4,2022-09-02T00:20:00Z,27.2104,-90.2733,1342.0,4.4,11113222
BP,ioos:station:wmo:42369:4,2022-09-02T00:40:00Z,27.2104,-90.2733,1342.0,4.4,11113222
BP,ioos:station:wmo:42369:4,2022-09-02T01:00:00Z,27.2104,-90.2733,1342.0,4.4,11113222
BP,ioos:station:wmo:42369:4,2022-09-02T01:20:00Z,27.2104,-90.2733,1342.0,4.4,11113222
BP,ioos:station:wmo:42369:4,2022-09-02T01:40:00Z,27.2104,-90.2733,1342.0,4.4,11113222
BP,ioos:station:wmo:42369:4,2022-09-02T02:00:00Z,27.2104,-90.2733,1342.0,4.4,11113222
BP,ioos:station:wmo:42369:4,2022-09-02T02:20:00Z,27.2104,-90.2734,1342.0,4.4,11113222
BP,ioos:station:wmo:42369:4,2022-09-02T02:40:00Z,27.2105,-90.2734,1342.0,4.4,11113222
BP,ioos:station:wmo:42369:4,2022-09-02T03:00:00Z,27.2105,-90.2734,1342.0,4.4,11113222
BP,ioos:station:wmo:42369:4,2022-09-02T03:20:00Z,27.2105,-90.2734,1342.0,4.4,11113222
BP,ioos:station:wmo:42369:4,2022-09-02T03:40:00Z,27.2105,-90.2734,1342.0,4.4,11113222
BP,ioos:station:wmo:42369:4,2022-09-02T04:00:00Z,27.2105,-90.2734,1342.0,4.4,11113222
BP,ioos:station:wmo:42369:4,2022-09-02T04:20:00Z,27.2106,-90.2735,1342.0,4.4,11113222
BP,ioos:station:wmo:42369:4,2022-09-02T04:40:00Z,27.2106,-90.2735,1342.0,4.4,11113222
BP,ioos:station:wmo:42369:4,2022-09-02T05:00:00Z,27.2107,-90.2736,1342.0,4.4,11113222
BP,ioos:station:wmo:42369:4,2022-09-02T05:20:00Z,27.2107,-90.2736,1342.0,4.4,11113222
BP,ioos:station:wmo:42369:4,2022-09-02T05:40:00Z,27.2107,-90.2736,1342.0,4.4,11113222
BP,ioos:station:wmo:42369:4,2022-09-02T06:00:00Z,27.2107,-90.2736,1342.0,4.4,11113222
BP,ioos:station:wmo:42369:4,2022-09-02T06:20:00Z,27.2109,-90.2736,1342.0,4.3,11113222
BP,ioos:station:wmo:42369:4,2022-09-02T06:40:00Z,27.2111,-90.2737,1342.0,4.4,11113222
BP,ioos:station:wmo:42369:4,2022-09-02T07:00:00Z,27.2111,-90.2737,1342.0,4.4,11113222
BP,ioos:station:wmo:42369:4,2022-09-02T07:20:00Z,27.2112,-90.2737,1342.0,4.4,11113222
BP,ioos:station:wmo:42369:4,2022-09-02T07:40:00Z,27.2111,-90.2737,1342.0,4.4,11113222
BP,ioos:station:wmo:42369:4,2022-09-02T08:00:00Z,27.2111,-90.2737,1342.0,4.3,11113222
BP,ioos:station:wmo:42369:4,2022-09-02T08:20:00Z,27.2111,-90.2737,1342.0,4.3,11113222
BP,ioos:station:wmo:42369:4,2022-09-02T08:40:00Z,27.2112,-90.2738,1342.0,4.4,11113222
BP,ioos:station:wmo:42369:4,2022-09-02T09:00:00Z,27.2113,-90.2738,1342.0,4.4,11113222
BP,ioos:station:wmo:42369:4,2022-09-02T09:20:00Z,27.2113,-90.2738,1342.0,4.4,11113222
BP,ioos:station:wmo:42369:4,2022-09-02T09:40:00Z,27.2117,-90.2738,1342.0,4.4,11113222
BP,ioos:station:wmo:42369:4,2022-09-02T10:00:00Z,27.2117,-90.2738,1342.0,4.4,11113222
BP,ioos:station:wmo:42369:4,2022-09-02T10:20:00Z,27.2117,-90.2738,1342.0,4.4,11113222
BP,ioos:station:wmo:42369:4,2022-09-02T10:40:00Z,27.2118,-90.2738,1342.0,4.4,11113222
BP,ioos:station:wmo:42369:4,2022-09-02T11:00:00Z,27.2118,-90.2738,1342.0,4.4,11113222
BP,ioos:station:wmo:42369:4,2022-09-02T11:20:00Z,27.2118,-90.2738,1342.0,4.4,11113222
BP,ioos:station:wmo:42369:4,2022-09-02T11:40:00Z,27.2118,-90.2738,1342.0,4.4,11113222
BP,ioos:station:wmo:42369:4,2022-09-02T12:00:00Z,27.2116,-90.2738,1342.0,4.4,11113222
BP,ioos:station:wmo:42369:4,2022-09-02T12:20:00Z,27.2118,-90.2738,1342.0,4.4,11113222
BP,ioos:station:wmo:42369:4,2022-09-02T12:40:00Z,27.2118,-90.2738,1342.0,4.4,11113222
BP,ioos:station:wmo:42369:4,2022-09-02T13:00:00Z,27.2118,-90.2738,1342.0,4.4,11113222
BP,ioos:station:wmo:42369:4,2022-09-02T13:20:00Z,27.2118,-90.2738,1342.0,4.4,11113222
BP,ioos:station:wmo:42369:4,2022-09-02T13:40:00Z,27.2118,-90.2738,1342.0,4.4,11113222
BP,ioos:station:wmo:42369:4,2022-09-02T14:00:00Z,27.2118,-90.2737,1342.0,4.4,11113222
BP,ioos:station:wmo:42369:4,2022-09-02T14:20:00Z,27.2118,-90.2736,1342.0,4.4,11113222
BP,ioos:station:wmo:42369:4,2022-09-02T14:40:00Z,27.2117,-90.2736,1342.0,4.4,11113222
BP,ioos:station:wmo:42369:4,2022-09-02T15:00:00Z,27.2117,-90.2736,1342.0,4.4,11113222
BP,ioos:station:wmo:42369:4,2022-09-02T15:20:00Z,27.2117,-90.2736,1342.0,4.4,11113222
BP,ioos:station:wmo:42369:4,2022-09-02T15:40:00Z,27.2117,-90.2736,1342.0,4.4,11113222
BP,ioos:station:wmo:42369:4,2022-09-02T16:00:00Z,27.2117,-90.2736,1342.0,4.4,11113222
BP,ioos:station:wmo:42369:4,2022-09-02T16:20:00Z,27.2117,-90.2736,1342.0,4.4,11113222
BP,ioos:station:wmo:42369:4,2022-09-02T16:40:00Z,27.2116,-90.2736,1342.0,4.4,11113222
BP,ioos:station:wmo:42369:4,2022-09-02T17:00:00Z,27.2116,-90.2736,1342.0,4.4,11113222
BP,ioos:station:wmo:42369:4,2022-09-02T17:20:00Z,27.2114,-90.2735,1342.0,4.4,11113222
BP,ioos:station:wmo:42369:4,2022-09-02T17:40:00Z,27.2113,-90.2736,1342.0,4.4,11113222
BP,ioos:station:wmo:42369:4,2022-09-02T18:00:00Z,27.2112,-90.2735,1342.0,4.4,11113222
BP,ioos:station:wmo:42369:4,2022-09-02T18:20:00Z,27.2112,-90.2735,1342.0,4.4,11113222
BP,ioos:station:wmo:42369:4,2022-09-02T18:40:00Z,27.2111,-90.2735,1342.0,4.4,11113222
BP,ioos:station:wmo:42369:4,2022-09-02T19:00:00Z,27.2111,-90.2734,1342.0,4.4,11113222
BP,ioos:station:wmo:42369:4,2022-09-02T19:20:00Z,27.2110,-90.2734,1342.0,4.4,11113222
BP,ioos:station:wmo:42369:4,2022-09-02T19:40:00Z,27.2110,-90.2734,1342.0,4.4,11113222
BP,ioos:station:wmo:42369:4,2022-09-02T20:00:00Z,27.2110,-90.2734,1342.0,4.4,11113222
BP,ioos:station:wmo:42369:4,2022-09-02T20:20:00Z,27.2106,-90.2732,1342.0,4.4,11113222
BP,ioos:station:wmo:42369:4,2022-09-02T20:40:00Z,27.2105,-90.2732,1342.0,4.4,11113222
BP,ioos:station:wmo:42369:4,2022-09-02T21:00:00Z,27.2104,-90.2732,1342.0,4.4,11113222
BP,ioos:station:wmo:42369:4,2022-09-02T21:20:00Z,27.2104,-90.2732,1342.0,4.4,11113222
BP,ioos:station:wmo:42369:4,2022-09-02T21:40:00Z,27.2102,-90.2732,1342.0,4.4,11113222
BP,ioos:station:wmo:42369:4,2022-09-02T22:00:00Z,27.2102,-90.2732,1342.0,4.4,11113222
BP,ioos:station:wmo:42369:4,2022-09-02T22:20:00Z,27.2101,-90.2731,1342.0,4.4,11113222
BP,ioos:station:wmo:42369:4,2022-09-02T22:40:00Z,27.2100,-90.2731,1342.0,4.4,11113222
BP,ioos:station:wmo:42369:4,2022-09-02T23:00:00Z,27.2099,-90.2731,1342.0,4.4,11113222
BP,ioos:station:wmo:42369:4,2022-09-02T23:20:00Z,27.2099,-90.2730,1342.0,4.4,11113222
BP,ioos:station:wmo:42369:4,2022-09-02T23:40:00Z,27.2098,-90.2730,1342.0,4.4,11113222
BP,ioos:station:wmo:42369:4,2022-09-03T00:00:00Z,27.2097,-90.2730,1342.0,4.4,11113222
BP,ioos:station:wmo:42369:4,2022-09-03T00:20:00Z,27.2096,-90.2730,1342.0,4.4,11113222
BP,ioos:station:wmo:42369:4,2022-09-03T00:40:00Z,27.2096,-90.2729,1342.0,4.4,11113222
BP,ioos:station:wmo:42369:4,2022-09-03T01:00:00Z,27.2095,-90.2729,1342.0,4.4,11113222
BP,ioos:station:wmo:42369:4,2022-09-03T01:20:00Z,27.2096,-90.2729,1342.0,4.4,11113222
BP,ioos:station:wmo:42369:4,2022-09-03T01:40:00Z,27.2095,-90.2729,1342.0,4.4,11113222
BP,ioos:station:wmo:42369:4,2022-09-03T02:00:00Z,27.2095,-90.2729,1342.0,4.4,11113222
BP,ioos:station:wmo:42369:4,2022-09-03T02:20:00Z,27.2095,-90.2729,1342.0,4.3,11113222
BP,ioos:station:wmo:42369:4,2022-09-03T02:40:00Z,27.2095,-90.2729,1342.0,4.3,11113222
BP,ioos:station:wmo:42369:4,2022-09-03T03:00:00Z,27.2095,-90.2729,1342.0,4.3,11113222
BP,ioos:station:wmo:42369:4,2022-09-03T03:20:00Z,27.2095,-90.2729,1342.0,4.3,11113222
BP,ioos:station:wmo:42369:4,2022-09-03T03:40:00Z,27.2096,-90.2729,1342.0,4.3,11113222
BP,ioos:station:wmo:42369:4,2022-09-03T04:00:00Z,27.2096,-90.2729,1342.0,4.3,11113222
BP,ioos:station:wmo:42369:4,2022-09-03T04:20:00Z,27.2096,-90.2729,1342.0,4.3,11113222
BP,ioos:station:wmo:42369:4,2022-09-03T04:40:00Z,27.2096,-90.2729,1342.0,4.3,11113222
BP,ioos:station:wmo:42369:4,2022-09-03T05:00:00Z,27.2096,-90.2729,1342.0,4.3,11113222
BP,ioos:station:wmo:42369:4,2022-09-03T05:20:00Z,27.2097,-90.2730,1342.0,4.3,11113222
BP,ioos:station:wmo:42369:4,2022-09-03T05:40:00Z,27.2098,-90.2730,1342.0,4.4,11113222
BP,ioos:station:wmo:42369:4,2022-09-03T06:00:00Z,27.2098,-90.2730,1342.0,4.3,11113222
BP,ioos:station:wmo:42369:4,2022-09-03T06:20:00Z,27.2098,-90.2730,1342.0,4.3,11113222
BP,ioos:station:wmo:42369:4,2022-09-03T06:40:00Z,27.2099,-90.2731,1342.0,4.3,11113222
BP,ioos:station:wmo:42369:4,2022-09-03T07:00:00Z,27.2099,-90.2731,1342.0,4.3,11113222
BP,ioos:station:wmo:42369:4,2022-09-03T07:20:00Z,27.2100,-90.2732,1342.0,4.3,11113222
BP,ioos:station:wmo:42369:4,2022-09-03T07:40:00Z,27.2100,-90.2732,1342.0,4.3,11113222
BP,ioos:station:wmo:42369:4,2022-09-03T08:00:00Z,27.2101,-90.2733,1342.0,4.3,11113222
BP,ioos:station:wmo:42369:4,2022-09-03T08:20:00Z,27.2101,-90.2733,1342.0,4.4,11113222
BP,ioos:station:wmo:42369:4,2022-09-03T08:40:00Z,27.2102,-90.2733,1342.0,4.3,11113222
BP,ioos:station:wmo:42369:4,2022-09-03T09:00:00Z,27.2102,-90.2734,1342.0,4.3,11113222
BP,ioos:station:wmo:42369:4,2022-09-03T09:20:00Z,27.2102,-90.2734,1342.0,4.4,11113222
BP,ioos:station:wmo:42369:4,2022-09-03T09:40:00Z,27.2103,-90.2734,1342.0,4.3,11113222
BP,ioos:station:wmo:42369:4,2022-09-03T10:00:00Z,27.2103,-90.2734,1342.0,4.4,11113222
BP,ioos:station:wmo:42369:4,2022-09-03T10:20:00Z,27.2104,-90.2734,1342.0,4.4,11113222
BP,ioos:station:wmo:42369:4,2022-09-03T10:40:00Z,27.2103,-90.2734,1342.0,4.3,11113222
BP,ioos:station:wmo:42369:4,2022-09-03T11:00:00Z,27.2103,-90.2734,1342.0,4.4,11113222
BP,ioos:station:wmo:42369:4,2022-09-03T11:20:00Z,27.2104,-90.2734,1342.0,4.3,11113222
BP,ioos:station:wmo:42369:4,2022-09-03T11:40:00Z,27.2103,-90.2734,1342.0,4.4,11113222
BP,ioos:station:wmo:42369:4,2022-09-03T12:00:00Z,27.2104,-90.2734,1342.0,4.3,11113222
BP,ioos:station:wmo:42369:4,2022-09-03T12:20:00Z,27.2104,-90.2734,1342.0,4.3,11113222
BP,ioos:station:wmo:42369:4,2022-09-03T12:40:00Z,27.2104,-90.2734,1342.0,4.3,11113222
BP,ioos:station:wmo:42369:4,2022-09-03T13:00:00Z,27.2104,-90.2734,1342.0,4.3,11113222
BP,ioos:station:wmo:42369:4,2022-09-03T13:20:00Z,27.2104,-90.2734,1342.0,4.3,11113222
BP,ioos:station:wmo:42369:4,2022-09-03T13:40:00Z,27.2104,-90.2734,1342.0,4.3,11113222
BP,ioos:station:wmo:42369:4,2022-09-03T14:00:00Z,27.2105,-90.2733,1342.0,4.3,11113222
BP,ioos:station:wmo:42369:4,2022-09-03T14:20:00Z,27.2105,-90.2733,1342.0,4.3,11113222
BP,ioos:station:wmo:42369:4,2022-09-03T14:40:00Z,27.2105,-90.2733,1342.0,4.3,11113222
BP,ioos:station:wmo:42369:4,2022-09-03T15:00:00Z,27.2105,-90.2733,1342.0,4.3,11113222
BP,ioos:station:wmo:42369:4,2022-09-03T15:20:00Z,27.2105,-90.2734,1342.0,4.3,11113222
BP,ioos:station:wmo:42369:4,2022-09-03T15:40:00Z,27.2106,-90.2733,1342.0,4.3,11113222
BP,ioos:station:wmo:42369:4,2022-09-03T16:00:00Z,27.2106,-90.2734,1342.0,4.3,11113222
BP,ioos:station:wmo:42369:4,2022-09-03T16:20:00Z,27.2106,-90.2734,1342.0,4.4,11113222
BP,ioos:station:wmo:42369:4,2022-09-03T16:40:00Z,27.2106,-90.2734,1342.0,4.3,11113222
BP,ioos:station:wmo:42369:4,2022-09-03T17:00:00Z,27.2107,-90.2734,1342.0,4.4,11113222
BP,ioos:station:wmo:42369:4,2022-09-03T17:20:00Z,27.2107,-90.2734,1342.0,4.4,11113222
BP,ioos:station:wmo:42369:4,2022-09-03T17:40:00Z,27.2107,-90.2734,1342.0,4.4,11113222
BP,ioos:station:wmo:42369:4,2022-09-03T18:00:00Z,27.2108,-90.2733,1342.0,4.4,11113222
BP,ioos:station:wmo:42369:4,2022-09-03T18:20:00Z,27.2108,-90.2733,1342.0,4.4,11113222
BP,ioos:station:wmo:42369:4,2022-09-03T18:40:00Z,27.2108,-90.2733,1342.0,4.4,11113222
BP,ioos:station:wmo:42369:4,2022-09-03T19:00:00Z,27.2108,-90.2733,1342.0,4.4,11113222
BP,ioos:station:wmo:42369:4,2022-09-03T19:20:00Z,27.2107,-90.2733,1342.0,4.4,11113222
BP,ioos:station:wmo:42369:4,2022-09-03T19:40:00Z,27.2107,-90.2733,1342.0,4.4,11113222
BP,ioos:station:wmo:42369:4,2022-09-03T20:00:00Z,27.2106,-90.2733,1342.0,4.4,11113222
BP,ioos:station:wmo:42369:4,2022-09-03T20:20:00Z,27.2105,-90.2733,1342.0,4.3,11113222
BP,ioos:station:wmo:42369:4,2022-09-03T20:40:00Z,27.2104,-90.2733,1342.0,4.3,11113222
BP,ioos:station:wmo:42369:4,2022-09-03T21:00:00Z,27.2103,-90.2733,1342.0,4.3,11113222
BP,ioos:station:wmo:42369:4,2022-09-03T21:20:00Z,27.2099,-90.2731,1342.0,4.3,11113222
BP,ioos:station:wmo:42369:4,2022-09-03T21:40:00Z,27.2097,-90.2730,1342.0,4.3,11113222
BP,ioos:station:wmo:42369:4,2022-09-03T22:00:00Z,27.2097,-90.2730,1342.0,4.3,11113222
BP,ioos:station:wmo:42369:4,2022-09-03T22:20:00Z,27.2097,-90.2730,1342.0,4.3,11113222
BP,ioos:station:wmo:42369:4,2022-09-03T22:40:00Z,27.2096,-90.2730,1342.0,4.3,11113222
BP,ioos:station:wmo:42369:4,2022-09-03T23:00:00Z,27.2093,-90.2730,1342.0,4.3,11113222
BP,ioos:station:wmo:42369:4,2022-09-03T23:20:00Z,27.2092,-90.2730,1342.0,4.3,11113222
BP,ioos:station:wmo:42369:4,2022-09-03T23:40:00Z,27.2092,-90.2730,1342.0,4.3,11113222
BP,ioos:station:wmo:42369:4,2022-09-04T00:00:00Z,27.2099,-90.2731,1342.0,4.3,11113222
BP,ioos:station:wmo:42369:4,2022-09-04T00:20:00Z,27.2097,-90.2730,1342.0,4.3,11113222
BP,ioos:station:wmo:42369:4,2022-09-04T00:40:00Z,27.2092,-90.2730,1342.0,4.3,11113222
BP,ioos:station:wmo:42369:4,2022-09-04T01:00:00Z,27.2092,-90.2730,1342.0,4.3,11113222
BP,ioos:station:wmo:42369:4,2022-09-04T01:20:00Z,27.2092,-90.2730,1342.0,4.3,11113222
BP,ioos:station:wmo:42369:4,2022-09-04T01:40:00Z,27.2092,-90.2730,1342.0,4.3,11113222
BP,ioos:station:wmo:42369:4,2022-09-04T02:00:00Z,27.2092,-90.2730,1342.0,4.3,11113222
BP,ioos:station:wmo:42369:4,2022-09-04T02:20:00Z,27.2092,-90.2730,1342.0,4.3,11113222
BP,ioos:station:wmo:42369:4,2022-09-04T02:40:00Z,27.2092,-90.2731,1342.0,4.3,11113222
BP,ioos:station:wmo:42369:4,2022-09-04T03:00:00Z,27.2092,-90.2731,1342.0,4.3,11113222
BP,ioos:station:wmo:42369:4,2022-09-04T03:20:00Z,27.2092,-90.2731,1342.0,4.3,11113222
BP,ioos:station:wmo:42369:4,2022-09-04T03:40:00Z,27.2092,-90.2731,1342.0,4.3,11113222
BP,ioos:station:wmo:42369:4,2022-09-04T04:00:00Z,27.2093,-90.2730,1342.0,4.3,11113222
BP,ioos:station:wmo:42369:4,2022-09-04T04:20:00Z,27.2092,-90.2730,1342.0,4.3,11113222
BP,ioos:station:wmo:42369:4,2022-09-04T04:40:00Z,27.2092,-90.2730,1342.0,4.3,11113222
BP,ioos:station:wmo:42369:4,2022-09-04T05:00:00Z,27.2092,-90.2730,1342.0,4.3,11113222
BP,ioos:station:wmo:42369:4,2022-09-04T05:20:00Z,27.2092,-90.2731,1342.0,4.3,11113222
BP,ioos:station:wmo:42369:4,2022-09-04T05:40:00Z,27.2092,-90.2731,1342.0,4.3,11113222
BP,ioos:station:wmo:42369:4,2022-09-04T06:00:00Z,27.2092,-90.2731,1342.0,4.3,11113222
BP,ioos:station:wmo:42369:4,2022-09-04T06:20:00Z,27.2093,-90.2732,1342.0,4.3,11113222
BP,ioos:station:wmo:42369:4,2022-09-04T06:40:00Z,27.2093,-90.2732,1342.0,4.3,11113222
BP,ioos:station:wmo:42369:4,2022-09-04T07:00:00Z,27.2093,-90.2732,1342.0,4.3,11113222
BP,ioos:station:wmo:42369:4,2022-09-04T07:20:00Z,27.2093,-90.2732,1342.0,4.3,11113222
BP,ioos:station:wmo:42369:4,2022-09-04T07:40:00Z,27.2094,-90.2732,1342.0,4.3,11113222
BP,ioos:station:wmo:42369:4,2022-09-04T08:00:00Z,27.2094,-90.2732,1342.0,4.3,11113222
BP,ioos:station:wmo:42369:4,2022-09-04T08:20:00Z,27.2095,-90.2732,1342.0,4.3,11113222
BP,ioos:station:wmo:42369:4,2022-09-04T08:40:00Z,27.2095,-90.2733,1342.0,4.3,11113222
BP,ioos:station:wmo:42369:4,2022-09-04T09:00:00Z,27.2096,-90.2733,1342.0,4.3,11113222
BP,ioos:station:wmo:42369:4,2022-09-04T09:20:00Z,27.2096,-90.2733,1342.0,4.4,11113222
BP,ioos:station:wmo:42369:4,2022-09-04T09:40:00Z,27.2096,-90.2733,1342.0,4.4,11113222
BP,ioos:station:wmo:42369:4,2022-09-04T10:00:00Z,27.2096,-90.2733,1342.0,4.4,11113222
BP,ioos:station:wmo:42369:4,2022-09-04T10:20:00Z,27.2097,-90.2734,1342.0,4.4,11113222
BP,ioos:station:wmo:42369:4,2022-09-04T10:40:00Z,27.2097,-90.2734,1342.0,4.4,11113222
BP,ioos:station:wmo:42369:4,2022-09-04T11:00:00Z,27.2097,-90.2734,1342.0,4.4,11113222
BP,ioos:station:wmo:42369:4,2022-09-04T11:20:00Z,27.2097,-90.2734,1342.0,4.4,11113222
BP,ioos:station:wmo:42369:4,2022-09-04T11:40:00Z,27.2097,-90.2735,1342.0,4.4,11113222
BP,ioos:station:wmo:42369:4,2022-09-04T12:00:00Z,27.2097,-90.2735,1342.0,4.4,11113222
BP,ioos:station:wmo:42369:4,2022-09-04T12:20:00Z,27.2097,-90.2735,1342.0,4.4,11113222
BP,ioos:station:wmo:42369:4,2022-09-04T12:40:00Z,27.2098,-90.2735,1342.0,4.4,11113222
BP,ioos:station:wmo:42369:4,2022-09-04T13:00:00Z,27.2099,-90.2736,1342.0,4.4,11113222
BP,ioos:station:wmo:42369:4,2022-09-04T13:20:00Z,27.2098,-90.2736,1342.0,4.4,11113222
BP,ioos:station:wmo:42369:4,2022-09-04T13:40:00Z,27.2099,-90.2736,1342.0,4.4,11113222
BP,ioos:station:wmo:42369:4,2022-09-04T14:00:00Z,27.2099,-90.2736,1342.0,4.4,11113222
BP,ioos:station:wmo:42369:4,2022-09-04T14:20:00Z,27.2099,-90.2736,1342.0,4.4,11113222
BP,ioos:station:wmo:42369:4,2022-09-04T14:40:00Z,27.2100,-90.2736,1342.0,4.4,11113222
BP,ioos:station:wmo:42369:4,2022-09-04T15:00:00Z,27.2100,-90.2736,1342.0,4.4,11113222
BP,ioos:station:wmo:42369:4,2022-09-04T15:20:00Z,27.2101,-90.2736,1342.0,4.3,11113222
BP,ioos:station:wmo:42369:4,2022-09-04T15:40:00Z,27.2101,-90.2736,1342.0,4.3,11113222
BP,ioos:station:wmo:42369:4,2022-09-04T16:00:00Z,27.2101,-90.2736,1342.0,4.3,11113222
BP,ioos:station:wmo:42369:4,2022-09-04T16:20:00Z,27.2102,-90.2736,1342.0,4.3,11113222
BP,ioos:station:wmo:42369:4,2022-09-04T16:40:00Z,27.2102,-90.2736,1342.0,4.3,11113222
BP,ioos:station:wmo:42369:4,2022-09-04T17:00:00Z,27.2102,-90.2736,1342.0,4.3,11113222
BP,ioos:station:wmo:42369:4,2022-09-04T17:20:00Z,27.2102,-90.2736,1342.0,4.3,11113222
BP,ioos:station:wmo:42369:4,2022-09-04T17:40:00Z,27.2102,-90.2736,1342.0,4.3,11113222
BP,ioos:station:wmo:42369:4,2022-09-04T18:00:00Z,27.2103,-90.2736,1342.0,4.3,11113222
BP,ioos:station:wmo:42369:4,2022-09-04T18:20:00Z,27.2103,-90.2736,1342.0,4.3,11113222
BP,ioos:station:wmo:42369:4,2022-09-04T18:40:00Z,27.2103,-90.2736,1342.0,4.3,11113222
BP,ioos:station:wmo:42369:4,2022-09-04T19:00:00Z,27.2104,-90.2736,1342.0,4.3,11113222
BP,ioos:station:wmo:42369:4,2022-09-04T19:20:00Z,27.2104,-90.2736,1342.0,4.3,11113222
BP,ioos:station:wmo:42369:4,2022-09-04T19:40:00Z,27.2104,-90.2736,1342.0,4.3,11113222
BP,ioos:station:wmo:42369:4,2022-09-04T20:00:00Z,27.2104,-90.2736,1342.0,4.3,11113222
BP,ioos:station:wmo:42369:4,2022-09-04T20:20:00Z,27.2104,-90.2737,1342.0,4.3,11113222
BP,ioos:station:wmo:42369:4,2022-09-04T20:40:00Z,27.2104,-90.2737,1342.0,4.3,11113222
BP,ioos:station:wmo:42369:4,2022-09-04T21:00:00Z,27.2103,-90.2737,1342.0,4.3,11113222
BP,ioos:station:wmo:42369:4,2022-09-04T21:20:00Z,27.2103,-90.2737,1342.0,4.3,11113222
BP,ioos:station:wmo:42369:4,2022-09-04T21:40:00Z,27.2103,-90.2737,1342.0,4.3,11113222